Temp
78 78 74 74 73 72 69 66 61 59 62 62 58 56 56 60 60 59 60 58 61 65 69 69 67 62 62 64 63 65 65 64 65 68 67 67 66 67 68 68 66 66 67 67
78 74 77 76 73 71 68 63 58 59 62 62 58 56 59 61 61 62 62 62 64 66 67 65 64 61 59 61 67 66 67 65 66 68 67 66 65 67 66 67 67 66 66 67
75 76 78 76 73 69 66 65 57 60 60 62 60 55 56 60 61 63 64 66 66 67 66 67 65 63 62 63 67 68 67 66 65 65 67 67 67 67 67 67 67 67 65 66
75 77 75 74 70 70 66 69 65 59 60 53 58 51 55 59 60 61 63 64 65 67 69 68 67 66 65 69 71 69 66 64 66 64 65 62 63 62 66 65 66 65 65 65
71 73 72 70 68 71 62 67 64 62 59 57 53 51 54 57 57 61 62 64 67 68 68 68 69 70 70 69 70 69 66 65 66 64 64 64 62 65 65 65 63 64 65 65
72 76 74 69 67 69 68 64 63 62 60 52 51 52 51 56 57 61 65 66 67 68 69 69 71 71 71 70 71 70 67 66 66 65 64 62 62 62 64 64 64 66 66 66
69 68 72 72 65 68 66 62 56 52 52 49 53 52 52 59 62 63 64 66 67 68 68 69 70 71 72 71 70 69 69 66 66 65 65 65 63 63 62 62 64 62 65 65
65 60 67 71 66 65 65 63 58 46 49 51 53 47 53 62 65 65 65 66 67 67 69 70 71 71 72 69 70 69 68 65 66 65 65 65 64 67 66 65 64 65 64 65
62 58 69 70 71 67 63 61 61 52 50 51 50 53 60 63 63 64 65 65 64 66 69 69 70 70 67 68 71 69 69 66 65 65 65 64 65 65 65 64 64 66 64 65
63 57 64 67 70 69 65 64 56 58 45 43 46 47 51 54 56 59 58 59 62 66 66 66 67 67 68 69 70 69 67 66 65 65 65 66 64 63 65 65 64 62 60 64
66 63 60 66 62 59 63 61 56 56 52 48 45 46 54 52 55 56 58 60 62 63 63 64 65 66 67 68 68 67 65 66 64 62 63 65 64 60 62 63 64 61 59 60
63 60 56 58 65 65 62 57 56 55 46 50 50 45 55 55 56 58 60 62 64 65 64 64 62 66 66 67 68 65 64 60 61 61 60 65 62 59 59 64 65 63 62 62
65 57 52 54 61 63 59 58 56 55 55 47 48 45 56 57 58 60 60 62 63 62 63 62 62 63 61 63 65 65 64 58 60 60 59 60 63 60 61 61 63 61 64 60
63 56 55 55 55 59 55 55 56 55 54 49 50 48 52 55 56 57 58 60 59 59 62 63 64 64 64 63 64 64 63 60 62 57 57 58 62 60 56 60 65 62 62 58
64 54 56 56 57 57 54 54 56 53 51 48 49 48 51 56 55 57 59 60 60 60 61 62 62 63 64 62 63 64 63 63 62 59 55 58 62 64 57 61 66 66 66 65
61 53 57 52 56 56 51 53 54 53 51 51 50 49 57 56 58 58 58 58 58 59 61 62 62 62 62 62 61 61 62 62 62 57 55 57 60 63 58 60 66 65 61 66
59 56 55 48 55 53 48 51 53 51 53 53 46 49 55 56 55 57 58 59 58 60 60 60 61 61 61 61 60 59 57 57 59 54 53 54 59 64 61 62 66 67 62 64
58 57 55 50 50 40 51 59 58 54 53 55 51 54 56 56 59 60 62 60 60 60 61 61 62 61 60 62 61 60 61 57 56 55 55 56 58 62 60 62 64 65 58 59
64 59 51 48 48 48 49 54 53 52 51 56 54 55 57 58 59 59 63 62 60 61 62 61 62 61 60 61 61 60 60 60 58 55 56 56 58 60 62 62 62 63 64 61
61 61 59 50 46 42 51 57 62 59 47 57 56 56 56 57 51 55 63 62 62 63 62 61 61 61 60 61 60 59 59 59 55 56 55 58 59 60 61 60 61 63 64 65
57 56 53 49 49 49 56 59 62 45 47 57 58 58 57 54 58 61 62 63 64 62 61 61 61 60 60 60 59 59 59 58 60 61 58 59 59 55 57 59 62 58 62 64
55 53 53 50 48 44 59 58 51 55 57 59 60 61 59 60 62 62 62 62 61 60 60 60 58 58 60 59 58 58 58 59 61 61 61 56 55 55 55 56 59 56 58 61
53 56 56 53 53 56 60 60 62 62 61 61 61 64 60 59 60 60 59 59 59 58 58 59 57 56 58 58 54 55 56 59 59 60 59 59 60 59 56 54 55 60 59 58
55 56 56 53 54 58 60 62 64 63 63 64 63 62 61 59 60 58 58 58 57 57 56 57 56 55 54 55 55 55 55 56 56 57 58 59 58 57 58 58 56 55 57 57
59 57 54 52 56 58 60 62 65 64 63 63 64 62 60 59 58 57 57 56 56 56 56 56 54 53 53 54 54 55 53 53 50 52 56 57 59 58 58 58 55 52 55 53
59 56 56 56 60 60 61 65 65 63 62 63 62 60 59 58 57 57 57 57 56 54 55 54 54 53 53 54 54 55 55 54 51 50 51 53 54 58 59 58 57 46 46 45
MSLP
1011.35 1011.41 1011.47 1012.18 1012.88 1013.52 1014.28 1015.36 1016.80 1018.55 1019.50 1019.62 1020.51 1021.30 1021.89 1022.07 1022.47 1022.65 1022.83 1023.09 1023.42 1023.39 1023.58 1023.82 1024.12 1024.74 1025.10 1025.30 1025.30 1025.32 1024.98 1024.97 1024.91 1024.53 1024.36 1024.29 1024.18 1024.22 1023.96 1023.79 1023.85 1023.61 1023.52 1023.11
1011.18 1010.98 1011.30 1012.08 1012.74 1013.39 1014.19 1015.27 1017.03 1018.72 1019.52 1019.81 1020.64 1021.27 1021.80 1022.07 1022.15 1022.11 1022.23 1022.30 1022.71 1022.90 1023.06 1023.51 1023.94 1024.45 1024.43 1024.40 1024.48 1024.84 1024.63 1024.58 1024.82 1024.66 1024.72 1024.74 1024.54 1024.15 1023.86 1023.51 1023.44 1023.38 1023.18 1022.92
1010.72 1011.11 1011.40 1011.87 1012.72 1013.32 1014.31 1014.83 1016.45 1017.48 1019.23 1019.97 1020.39 1020.90 1021.35 1021.76 1022.03 1021.95 1021.96 1022.04 1022.20 1022.18 1022.40 1022.76 1023.47 1023.69 1023.80 1023.47 1023.86 1024.25 1024.44 1024.46 1024.63 1024.73 1024.47 1024.36 1024.10 1023.89 1023.54 1023.26 1023.07 1023.02 1023.01 1022.78
1011.13 1011.46 1011.64 1012.10 1012.66 1013.37 1014.04 1014.84 1015.83 1017.15 1018.14 1019.36 1020.49 1020.30 1020.94 1021.18 1021.40 1021.62 1021.59 1021.73 1021.80 1021.90 1022.00 1022.27 1022.70 1023.06 1023.32 1023.21 1023.39 1023.64 1023.86 1024.21 1024.27 1024.33 1024.21 1024.24 1023.95 1023.71 1023.34 1023.29 1023.05 1022.87 1022.83 1022.61
1011.76 1011.85 1012.20 1012.72 1013.60 1013.89 1015.13 1015.53 1016.18 1017.23 1018.01 1018.94 1020.18 1020.47 1020.53 1021.21 1020.93 1020.96 1021.17 1021.31 1021.29 1021.46 1021.60 1021.73 1021.89 1022.00 1022.24 1022.77 1022.79 1023.20 1023.64 1023.87 1023.86 1024.02 1024.07 1023.93 1023.71 1023.47 1023.30 1023.00 1022.82 1022.55 1022.37 1022.29
1012.21 1012.71 1013.14 1013.87 1014.66 1014.50 1015.50 1016.02 1016.83 1017.46 1017.96 1018.56 1019.87 1020.32 1020.55 1020.71 1020.88 1020.70 1020.71 1020.75 1020.88 1021.01 1021.18 1021.32 1021.25 1021.62 1021.74 1022.20 1022.44 1022.64 1023.09 1023.38 1023.58 1023.68 1023.62 1023.66 1023.44 1023.19 1022.88 1022.54 1022.40 1022.11 1021.97 1021.68
1012.64 1013.32 1013.88 1014.47 1015.06 1015.43 1015.49 1015.84 1016.18 1016.78 1017.42 1018.40 1019.87 1020.16 1020.53 1020.71 1020.79 1020.83 1020.80 1020.72 1020.70 1020.77 1020.86 1020.86 1020.90 1021.00 1021.11 1021.47 1021.87 1022.12 1022.37 1022.74 1023.17 1023.27 1023.20 1023.18 1023.09 1022.93 1022.77 1022.40 1022.09 1022.12 1021.68 1021.39
1012.76 1013.80 1014.36 1014.90 1015.20 1015.24 1015.55 1015.86 1015.86 1016.24 1017.19 1018.44 1019.88 1020.10 1020.70 1020.96 1020.95 1021.12 1021.21 1021.09 1020.85 1020.87 1020.83 1020.76 1020.88 1021.07 1021.01 1021.38 1021.56 1021.62 1021.95 1022.24 1022.49 1022.72 1022.73 1022.80 1022.80 1022.50 1022.35 1022.10 1022.11 1021.90 1021.70 1021.39
1013.44 1014.52 1015.19 1015.43 1015.52 1015.80 1015.79 1016.23 1017.11 1017.35 1018.61 1018.67 1020.00 1020.69 1020.92 1021.16 1021.37 1021.53 1021.47 1021.47 1021.48 1021.36 1021.24 1021.14 1021.09 1021.22 1021.43 1021.32 1021.06 1021.44 1021.63 1021.94 1022.22 1022.32 1022.34 1022.39 1022.48 1022.41 1022.13 1022.03 1022.02 1021.72 1021.60 1021.22
1014.25 1015.05 1015.76 1015.75 1015.86 1016.16 1016.20 1017.29 1017.47 1017.59 1018.06 1018.69 1020.12 1020.93 1021.32 1022.01 1022.35 1022.46 1022.42 1022.40 1022.18 1021.84 1021.57 1021.68 1021.81 1021.65 1021.32 1021.16 1021.10 1021.31 1021.39 1021.57 1021.83 1021.97 1021.96 1022.03 1022.13 1022.16 1021.96 1021.75 1021.42 1021.56 1021.41 1021.00
1014.76 1015.53 1016.31 1016.09 1016.66 1017.05 1017.13 1017.28 1018.19 1018.61 1019.20 1019.22 1020.16 1021.67 1023.30 1023.51 1023.49 1023.23 1023.16 1023.03 1022.75 1022.55 1022.31 1022.07 1021.88 1022.11 1021.75 1021.49 1021.25 1021.27 1021.52 1021.72 1021.82 1021.83 1021.58 1021.46 1021.73 1021.80 1021.84 1021.54 1021.21 1021.15 1021.10 1020.87
1015.94 1016.47 1016.76 1017.21 1017.69 1018.03 1018.14 1018.49 1018.81 1018.55 1019.66 1020.42 1021.05 1022.89 1024.07 1024.24 1024.13 1023.88 1023.49 1023.31 1023.10 1022.75 1022.60 1022.29 1022.23 1022.58 1021.96 1021.57 1021.37 1021.37 1021.26 1021.35 1021.61 1021.90 1021.72 1021.06 1021.26 1021.49 1021.49 1021.16 1020.67 1020.49 1020.58 1020.33
1016.40 1017.26 1017.66 1017.88 1018.17 1018.35 1018.64 1019.40 1019.77 1019.86 1020.18 1020.82 1021.45 1023.00 1024.18 1024.36 1024.10 1023.86 1023.60 1023.27 1023.20 1022.96 1022.77 1022.97 1022.79 1022.43 1022.34 1021.97 1021.60 1021.35 1021.27 1021.04 1021.10 1021.41 1021.51 1021.24 1020.77 1020.89 1020.78 1020.72 1020.26 1020.21 1020.19 1020.15
1016.95 1018.05 1018.02 1018.01 1018.36 1018.96 1019.48 1020.09 1020.35 1020.35 1020.48 1021.37 1022.13 1023.02 1023.90 1024.08 1023.99 1024.03 1024.02 1023.82 1023.79 1023.57 1023.42 1023.25 1022.92 1022.71 1022.46 1022.16 1021.82 1021.36 1021.01 1021.02 1020.85 1020.72 1021.02 1020.97 1020.56 1020.21 1020.36 1020.12 1019.81 1019.51 1019.74 1019.78
1017.54 1018.70 1019.16 1019.47 1019.65 1019.87 1020.43 1020.70 1020.75 1020.99 1021.85 1022.08 1022.77 1023.40 1023.97 1024.07 1024.24 1024.31 1024.39 1024.15 1023.93 1023.80 1023.62 1023.38 1023.15 1022.96 1022.63 1022.28 1021.87 1021.35 1020.93 1020.57 1020.55 1020.44 1020.49 1020.50 1020.10 1019.82 1019.92 1019.68 1019.25 1019.00 1019.21 1019.21
1018.32 1019.40 1019.67 1020.29 1020.70 1020.83 1021.19 1021.54 1021.70 1022.07 1022.57 1022.97 1023.40 1023.81 1024.21 1024.33 1024.38 1024.42 1024.40 1024.26 1024.03 1023.85 1023.66 1023.37 1023.22 1023.01 1022.67 1022.36 1022.04 1021.52 1020.88 1020.32 1020.08 1020.05 1020.08 1019.97 1019.81 1019.26 1019.39 1019.23 1018.85 1018.57 1018.82 1018.73
1018.35 1019.21 1019.82 1020.54 1021.18 1021.38 1021.64 1021.77 1021.98 1022.52 1022.89 1023.16 1023.55 1024.16 1024.27 1024.20 1024.43 1024.40 1024.34 1024.18 1024.00 1023.83 1023.60 1023.35 1023.20 1022.97 1022.74 1022.47 1022.18 1021.63 1021.20 1020.61 1019.93 1019.80 1019.55 1019.60 1019.45 1018.78 1018.63 1018.60 1018.31 1017.83 1018.32 1018.22
1018.38 1019.10 1020.01 1020.55 1021.58 1021.61 1021.77 1021.99 1022.19 1022.43 1023.14 1023.56 1023.87 1024.12 1024.29 1024.43 1024.40 1024.26 1024.12 1024.08 1023.86 1023.65 1023.43 1023.29 1023.14 1022.99 1022.82 1022.48 1022.00 1021.53 1020.84 1020.41 1019.88 1019.40 1019.15 1019.10 1018.90 1018.28 1018.21 1017.90 1017.84 1017.67 1018.02 1017.92
1018.19 1018.92 1019.80 1020.51 1021.05 1021.80 1022.03 1022.16 1022.42 1022.45 1022.82 1023.54 1023.79 1024.07 1024.28 1024.40 1024.29 1023.77 1023.86 1023.81 1023.76 1023.52 1023.43 1023.37 1023.25 1023.07 1022.82 1022.40 1021.94 1021.46 1020.76 1020.19 1019.68 1019.16 1018.70 1018.59 1018.42 1018.05 1017.69 1017.47 1017.27 1017.28 1017.36 1017.40
1018.73 1018.97 1019.30 1020.34 1020.64 1020.86 1021.23 1021.87 1022.11 1022.60 1022.66 1023.51 1023.82 1024.00 1024.13 1024.25 1023.64 1023.44 1023.44 1023.60 1023.42 1023.19 1023.17 1023.13 1023.04 1022.86 1022.53 1022.20 1021.95 1021.45 1020.83 1020.28 1019.84 1019.11 1018.62 1018.24 1018.04 1017.83 1017.46 1017.26 1017.05 1017.09 1016.94 1016.80
1018.95 1019.38 1019.65 1020.29 1020.57 1021.17 1021.56 1021.92 1022.10 1022.52 1023.41 1023.47 1023.74 1023.85 1023.98 1023.99 1023.80 1023.40 1023.33 1023.20 1023.09 1023.12 1023.09 1023.05 1022.83 1022.54 1022.23 1022.07 1021.73 1021.19 1020.72 1020.20 1019.83 1019.15 1018.61 1018.03 1017.81 1017.84 1017.57 1017.05 1016.76 1016.88 1016.77 1016.59
1019.44 1019.76 1020.15 1020.75 1020.88 1021.33 1021.75 1022.01 1022.24 1022.77 1023.22 1023.37 1023.56 1023.62 1023.73 1023.63 1023.45 1023.29 1023.23 1023.12 1023.16 1023.08 1022.96 1022.86 1022.70 1022.41 1022.13 1021.99 1021.70 1021.08 1020.53 1020.36 1019.78 1019.14 1018.50 1018.27 1018.08 1017.77 1017.40 1016.97 1016.74 1016.75 1016.66 1016.31
1020.22 1020.42 1020.55 1021.04 1021.19 1021.66 1021.90 1021.89 1022.40 1022.78 1022.89 1023.17 1023.34 1023.35 1023.74 1023.70 1023.48 1023.48 1023.38 1023.42 1023.38 1023.34 1023.29 1023.17 1022.95 1022.66 1022.32 1022.11 1022.08 1021.38 1021.06 1020.58 1019.86 1019.14 1018.71 1018.21 1017.81 1017.44 1017.31 1017.20 1017.14 1016.63 1016.32 1016.25
1020.61 1021.01 1020.96 1021.42 1021.82 1021.76 1021.98 1022.31 1022.48 1022.75 1022.82 1023.07 1023.34 1023.51 1023.63 1023.62 1023.66 1023.70 1023.72 1023.78 1023.70 1023.65 1023.57 1023.49 1023.22 1022.91 1022.69 1022.61 1022.26 1021.92 1021.49 1020.97 1020.17 1019.39 1018.79 1018.34 1017.93 1017.58 1017.17 1017.07 1017.00 1016.66 1016.25 1015.88
1020.54 1021.08 1021.23 1021.47 1021.76 1022.01 1022.09 1022.23 1022.26 1022.53 1022.92 1023.08 1023.30 1023.56 1023.71 1023.86 1023.96 1024.11 1024.07 1024.14 1024.09 1024.04 1023.92 1023.76 1023.63 1023.42 1023.10 1022.80 1022.46 1022.11 1021.74 1021.18 1020.54 1019.84 1019.03 1018.50 1018.07 1017.67 1017.14 1016.72 1016.85 1016.55 1016.51 1016.30
1020.38 1020.59 1020.72 1020.50 1020.89 1021.16 1021.43 1021.92 1022.24 1022.51 1022.75 1023.07 1023.31 1023.67 1024.05 1024.26 1024.34 1024.42 1024.34 1024.40 1024.39 1024.29 1024.21 1024.02 1023.83 1023.63 1023.29 1022.86 1022.43 1022.03 1021.66 1021.20 1020.63 1019.96 1019.37 1018.95 1018.49 1017.76 1017.28 1016.84 1016.45 1016.62 1016.52 1016.27
Wind_Speed
1 4 4 5 5 3 6 6 7 5 4 8 8 7 3 3 4 8 7 6 8 9 8 8 6 6 0 6 5 5 3 1 3 3 4 4 5 5 4 4 5 6 5 6
3 3 2 8 10 10 10 15 7 6 4 4 6 5 4 3 2 3 9 11 9 5 5 5 7 6 5 12 9 8 5 0 3 2 1 3 4 4 5 5 5 5 7 6
2 2 4 3 6 7 5 3 10 7 10 6 6 3 1 4 3 3 5 8 9 9 7 6 9 11 10 12 11 9 6 5 4 4 3 3 3 4 3 4 5 6 7 6
1 2 2 4 2 1 5 4 13 16 10 3 2 1 2 3 5 5 6 7 10 10 8 5 10 12 13 12 10 9 7 6 5 3 3 4 5 6 5 5 5 5 5 6
3 3 4 3 6 2 4 6 12 12 6 7 3 4 3 3 1 4 3 7 9 9 9 9 10 12 12 9 11 8 7 7 4 4 4 4 6 5 6 5 7 5 5 5
4 2 5 3 8 7 14 14 10 5 3 4 3 3 3 1 3 5 4 4 7 9 10 11 10 9 10 6 6 7 7 6 4 5 4 6 7 8 7 7 6 5 5 5
3 4 3 5 7 2 5 7 2 5 5 1 2 2 3 4 3 4 9 9 6 6 9 10 8 9 8 7 6 6 8 7 5 5 5 6 7 7 8 7 5 7 6 6
4 5 6 6 2 2 7 3 4 7 6 3 3 3 4 6 4 3 5 6 5 5 6 8 8 9 8 6 7 8 9 7 5 5 5 5 6 5 5 5 5 5 6 6
3 2 2 7 5 2 3 3 3 5 1 3 2 3 1 4 8 9 12 14 15 14 11 9 8 7 6 8 9 7 7 7 5 5 4 5 5 6 5 5 4 4 4 5
3 3 4 3 2 10 5 5 3 1 3 2 3 2 2 12 12 12 15 15 15 14 15 14 14 14 11 10 7 7 7 8 6 6 5 5 5 6 6 6 6 5 5 5
4 1 2 0 7 6 1 1 5 3 3 3 1 3 8 6 7 9 10 11 13 14 14 15 15 16 13 10 7 7 7 9 9 6 6 5 6 6 7 8 6 5 5 6
3 4 4 4 4 3 3 4 3 4 4 2 3 3 5 5 6 7 10 11 11 11 13 13 11 13 14 13 10 8 7 6 7 8 8 7 6 4 7 10 9 7 7 7
4 3 5 4 4 3 5 5 3 4 1 2 3 3 4 3 6 9 11 12 12 14 16 14 10 14 13 14 13 12 9 4 7 6 7 9 8 6 10 10 10 6 6 5
5 4 3 2 4 3 3 4 2 1 1 4 0 5 1 6 9 10 10 12 12 10 13 13 14 15 15 15 15 14 11 6 9 3 5 9 11 7 5 11 12 8 4 4
4 5 5 9 6 5 5 5 6 6 3 3 3 2 5 8 8 8 8 8 10 11 13 13 13 13 14 15 16 15 13 10 7 6 4 9 10 10 5 11 11 6 6 5
3 5 4 5 5 5 8 6 9 8 6 5 2 1 5 5 1 5 7 7 9 11 13 14 14 14 14 14 15 16 16 14 11 7 6 9 10 11 5 11 9 5 5 6
3 7 4 5 6 3 3 2 3 5 3 2 3 0 6 4 4 6 7 8 9 11 13 14 15 14 13 13 13 15 15 14 12 6 6 9 11 11 6 10 12 7 4 6
8 6 2 5 5 5 4 5 4 5 5 4 3 2 2 3 6 8 8 9 10 11 12 13 13 12 11 12 12 13 14 11 11 9 10 8 9 11 8 6 10 9 5 5
2 5 4 4 5 2 4 6 6 4 3 4 2 1 2 4 6 4 6 6 10 11 10 9 10 11 11 11 12 12 12 14 12 11 10 7 7 9 10 8 9 7 8 7
7 5 2 3 3 4 4 2 1 3 5 4 2 2 4 5 7 7 8 9 13 11 9 9 10 11 9 11 11 12 13 13 14 13 10 7 8 10 10 8 9 8 8 7
1 2 1 3 4 1 2 2 6 5 4 3 4 4 5 6 7 12 12 13 11 10 11 11 10 10 10 8 10 12 12 13 14 14 10 9 5 5 7 9 7 4 8 7
3 3 2 2 4 3 3 5 4 4 3 4 5 6 8 10 13 13 13 13 12 11 12 13 11 11 11 9 9 12 12 12 12 13 12 8 6 5 3 6 10 4 7 9
3 2 0 3 2 3 3 8 8 6 5 3 4 6 5 10 12 12 12 12 10 10 10 11 11 11 9 10 9 11 13 14 13 12 11 11 11 8 4 3 7 8 7 8
3 2 2 5 4 7 7 4 5 5 5 3 4 6 6 9 10 9 9 9 9 9 10 11 11 11 11 11 11 11 12 13 13 12 10 9 9 10 7 4 3 4 6 6
2 7 6 2 4 4 5 6 5 6 4 6 4 4 4 5 7 8 8 8 9 10 11 10 9 9 11 12 12 12 12 12 10 11 11 9 8 9 9 7 4 2 6 5
5 5 5 2 9 3 6 7 4 4 3 2 2 1 3 5 7 8 8 8 10 10 9 9 11 11 12 12 12 12 12 12 11 10 7 7 8 8 7 7 7 3 4 11
Wind_Direction
131 220 261 41 207 144 129 138 117 106 123 69 87 108 49 222 201 220 221 195 224 223 220 230 160 130 22 271 268 257 235 349 352 356 359 345 346 331 311 314 320 325 325 323
157 262 99 104 152 144 138 137 122 106 142 110 143 99 120 82 46 294 228 227 228 234 241 205 173 164 209 240 245 248 240 276 295 297 335 295 307 304 317 326 323 324 331 328
235 49 117 70 140 147 179 190 172 147 136 102 144 135 200 205 270 293 247 250 254 266 276 248 203 199 216 241 246 245 236 222 244 267 267 262 269 273 300 344 331 338 325 321
34 3 69 43 346 224 232 282 154 143 171 152 247 283 253 306 303 277 259 242 250 255 258 259 223 214 231 251 250 230 216 213 229 252 285 302 307 305 316 302 315 312 312 312
67 44 54 56 349 313 58 112 131 140 107 147 130 251 94 297 319 4 279 249 243 243 246 263 250 239 239 250 240 216 208 217 229 251 270 285 288 291 292 298 311 317 313 307
83 60 48 63 26 106 124 114 99 109 138 219 92 289 94 25 343 335 349 318 266 248 244 256 270 261 252 261 255 211 209 223 232 253 253 270 293 305 306 320 308 318 316 313
124 45 83 72 110 188 152 168 172 217 211 359 114 193 58 327 309 299 331 331 326 277 250 261 271 249 259 258 234 222 207 225 228 264 273 294 302 304 299 314 317 314 317 317
189 178 21 12 15 311 157 289 292 287 284 96 160 155 86 343 287 309 306 308 325 331 293 286 296 308 289 268 257 213 225 236 225 275 294 305 312 310 314 330 316 308 312 315
139 121 317 38 50 311 149 242 40 110 105 217 121 151 177 45 53 12 12 8 0 353 348 325 306 308 299 276 260 246 239 240 248 274 288 294 303 306 314 313 296 304 301 313
91 130 18 357 184 62 33 113 222 152 228 238 148 184 42 348 359 21 27 20 14 21 25 15 357 337 323 302 299 278 248 252 253 261 259 277 290 286 281 278 289 294 291 295
99 10 50 252 25 354 4 106 67 89 346 296 216 120 1 357 35 44 43 37 28 23 21 22 17 357 345 326 318 313 292 284 277 260 264 255 280 270 276 276 270 266 276 279
54 91 75 71 35 54 67 44 342 291 149 57 331 111 31 56 48 30 23 7 3 12 7 9 9 341 358 349 332 302 278 264 276 280 282 264 267 270 264 266 275 275 273 277
171 74 135 159 164 131 48 26 63 89 103 136 275 122 69 60 16 9 3 10 9 12 8 360 349 355 354 347 344 324 298 280 256 269 282 281 267 250 264 278 271 280 277 265
85 77 316 335 70 93 102 24 357 291 243 136 348 152 42 355 357 13 6 15 7 358 2 1 357 354 350 346 340 334 319 301 299 248 271 272 278 253 233 275 281 259 251 242
68 82 77 60 76 92 103 74 62 78 84 305 115 133 357 350 352 11 360 356 360 6 357 353 351 351 347 346 342 337 324 301 297 297 279 272 279 286 257 268 276 275 255 234
41 115 110 67 91 110 103 95 91 89 95 112 161 138 4 354 299 357 353 352 349 350 345 339 341 339 339 343 339 334 327 321 310 302 290 301 289 283 231 276 264 231 252 235
102 145 160 165 164 113 178 124 141 134 176 191 264 272 336 357 350 338 336 333 334 336 331 331 331 333 335 336 336 336 331 322 313 267 275 274 278 282 267 261 261 242 261 275
139 122 108 145 192 241 66 185 220 143 143 135 162 303 7 336 323 308 312 303 313 322 327 329 331 329 328 328 332 333 337 335 318 286 262 261 276 282 275 277 274 265 204 235
112 139 138 186 207 20 194 183 185 236 199 190 272 195 321 326 306 332 334 297 301 307 319 320 320 320 321 328 334 335 340 344 349 334 297 268 285 284 286 275 252 271 227 202
83 74 252 164 232 248 89 126 243 195 248 163 208 233 295 306 324 328 324 308 303 296 306 311 316 314 321 334 331 328 339 345 349 339 324 300 297 294 292 271 260 270 256 262
101 50 217 175 231 243 120 91 138 227 70 155 208 252 274 273 284 297 301 301 303 295 306 314 312 308 311 325 328 328 333 343 340 340 339 318 303 277 291 311 277 226 254 256
211 180 182 182 233 227 147 122 239 91 153 188 217 260 268 274 285 294 312 317 324 319 322 326 318 314 317 328 331 328 333 339 334 341 344 354 342 318 330 356 310 238 256 245
203 292 276 265 53 104 145 122 132 157 137 187 244 280 311 301 304 321 323 331 335 341 342 346 341 332 338 350 346 338 345 338 332 335 343 339 339 342 322 331 319 310 240 244
150 152 144 183 164 158 148 142 165 192 227 263 289 303 304 310 331 337 347 350 345 352 349 345 347 351 358 357 355 353 346 344 336 333 336 344 344 337 333 319 309 317 293 274
72 161 150 126 168 174 207 221 214 231 260 279 302 312 345 349 354 349 346 351 348 347 349 354 3 360 355 350 348 350 349 344 338 331 328 340 339 341 333 333 317 336 327 307
189 153 196 209 170 181 179 205 223 248 260 354 44 53 50 4 355 349 352 352 352 347 355 1 358 354 351 347 345 345 343 342 339 330 333 340 327 333 325 326 326 211 275 306